Fernandina Beach, FL

4:54 PM EST on December 09, 2019 (GMT -0500)
Fernandina Beach

Weather History for KFHB - October, 2019

Change the Weather History Date:

Thursday, October 24, 2019

  Actual Average (KNRB) Record (KNRB)
Temperature  
Mean Temperature 74 °F -  
Max Temperature 79 °F 75 °F 84 °F (2001)
Min Temperature 70 °F 63 °F 46 °F (1999)
Cooling Degree Days 10    
Growing Degree Days 24 (Base 50)    
Moisture  
Dew Point 67 °F    
Average Humidity 75    
Maximum Humidity 90    
Minimum Humidity 63    
Precipitation  
Precipitation 0.00 in - - ()
Sea Level Pressure  
Sea Level Pressure 30.15 in    
Wind  
Wind Speed 10 mph (ENE)    
Max Wind Speed 16 mph    
Max Gust Speed 21 mph    
Visibility 10 miles    
Events      
Averages and records for this station are not official NWS values.
T = Trace of Precipitation, MM = Missing Value Source: NWS Daily Summary

Daily Weather History Graph

Daily Weather History Graph

Search for Another Location

Airport or City:

Astronomy

Oct. 24, 2019 Rise Set
Actual Time 7:34 AM EDT 6:45 PM EDT
Civil Twilight 7:09 AM EDT 7:09 PM EDT
Nautical Twilight 6:41 AM EDT 7:38 PM EDT
Astronomical Twilight 6:13 AM EDT 8:06 PM EDT
Moon 3:27 AM EDT (10/24) 4:50 PM EDT (10/24)
Length of Visible Light 12h 00m
Length of Day
11h 11m
Waning Crescent, 17% of the Moon is Illuminated
Oct 24
Waning Crescent
Oct 27
New
Nov 4
First Quarter
Nov 12
Full
Nov 19
Last Quarter

Hourly Weather History & Observations

Time (EDT) Temp. Dew Point Humidity Pressure Visibility Wind Dir Wind Speed Gust Speed Precip Events Conditions
12:15 AM 70.5 °F 57.2 °F 63% 30.15 in 10.0 mi ENE 12.7 mph - N/A   Mostly Cloudy
12:35 AM 71.2 °F 57.9 °F 63% 30.14 in 10.0 mi ENE 9.2 mph - N/A   Overcast
12:55 AM 71.1 °F 58.8 °F 65% 30.14 in 10.0 mi East 8.1 mph - N/A   Scattered Clouds
1:15 AM 72.0 °F 59.2 °F 64% 30.14 in 10.0 mi ENE 12.7 mph - N/A   Mostly Cloudy
1:35 AM 72.0 °F 60.1 °F 66% 30.13 in 10.0 mi ENE 11.5 mph - N/A   Mostly Cloudy
1:55 AM 72.0 °F 60.8 °F 68% 30.13 in 10.0 mi ENE 12.7 mph - N/A   Scattered Clouds
2:15 AM 72.5 °F 61.7 °F 69% 30.12 in 10.0 mi ENE 11.5 mph - N/A   Mostly Cloudy
2:35 AM 72.3 °F 61.9 °F 70% 30.12 in 10.0 mi ENE 12.7 mph - N/A   Scattered Clouds
2:55 AM 72.0 °F 62.1 °F 71% 30.12 in 10.0 mi ENE 11.5 mph - N/A   Clear
3:15 AM 72.0 °F 62.2 °F 71% 30.12 in 10.0 mi ENE 13.8 mph - N/A   Clear
3:35 AM 72.1 °F 62.8 °F 72% 30.12 in 10.0 mi ENE 10.4 mph - N/A   Clear
3:55 AM 72.5 °F 63.3 °F 73% 30.11 in 10.0 mi ENE 10.4 mph - N/A   Clear
4:15 AM 72.3 °F 64.0 °F 75% 30.11 in 10.0 mi ENE 10.4 mph - N/A   Scattered Clouds
4:35 AM 73.6 °F 62.1 °F 67% 30.11 in 10.0 mi East 9.2 mph - N/A   Scattered Clouds
4:55 AM 73.0 °F 62.4 °F 69% 30.11 in 10.0 mi East 6.9 mph - N/A   Clear
5:15 AM 73.2 °F 63.3 °F 71% 30.12 in 10.0 mi East 8.1 mph - N/A   Clear
5:35 AM 73.4 °F 63.3 °F 71% 30.13 in 10.0 mi East 8.1 mph - N/A   Scattered Clouds
5:55 AM 73.0 °F 63.7 °F 72% 30.13 in 10.0 mi East 8.1 mph - N/A   Scattered Clouds
6:15 AM 72.5 °F 63.9 °F 74% 30.14 in 10.0 mi ENE 5.8 mph - N/A   Scattered Clouds
6:35 AM 72.9 °F 63.5 °F 72% 30.13 in 10.0 mi East 6.9 mph - N/A   Scattered Clouds
6:55 AM 72.5 °F 63.5 °F 73% 30.14 in 10.0 mi East 5.8 mph - N/A   Scattered Clouds
7:15 AM 73.0 °F 63.9 °F 73% 30.14 in 10.0 mi East 6.9 mph - N/A   Mostly Cloudy
7:35 AM 72.9 °F 64.9 °F 76% 30.14 in 10.0 mi East 5.8 mph - N/A   Overcast
7:55 AM 74.3 °F 65.5 °F 74% 30.14 in 10.0 mi East 8.1 mph - N/A   Overcast
8:15 AM 74.8 °F 65.1 °F 72% 30.15 in 10.0 mi East 10.4 mph - N/A   Overcast
8:35 AM 75.4 °F 64.9 °F 70% 30.15 in 10.0 mi East 11.5 mph - N/A   Overcast
8:55 AM 75.4 °F 64.9 °F 70% 30.16 in 10.0 mi East 10.4 mph - N/A   Overcast
9:15 AM 75.9 °F 65.3 °F 70% 30.17 in 10.0 mi ENE 10.4 mph - N/A   Overcast
9:35 AM 76.5 °F 65.1 °F 68% 30.17 in 10.0 mi ENE 11.5 mph - N/A   Overcast
9:55 AM 76.8 °F 65.5 °F 68% 30.18 in 10.0 mi ENE 10.4 mph - N/A   Overcast
10:15 AM 77.2 °F 66.2 °F 69% 30.18 in 10.0 mi ENE 11.5 mph - N/A   Overcast
10:35 AM 77.9 °F 66.6 °F 68% 30.18 in 10.0 mi ENE 10.4 mph - N/A   Overcast
10:55 AM 78.6 °F 67.5 °F 68% 30.18 in 10.0 mi ENE 11.5 mph - N/A   Overcast
11:15 AM 78.3 °F 68.0 °F 71% 30.18 in 10.0 mi ENE 11.5 mph - N/A   Overcast
11:35 AM 77.9 °F 68.0 °F 71% 30.19 in 10.0 mi ENE 10.4 mph 17.3 mph N/A   Overcast
11:55 AM 78.1 °F 68.0 °F 71% 30.18 in 10.0 mi NE 11.5 mph - N/A   Overcast
12:15 PM 77.9 °F 68.0 °F 71% 30.18 in 10.0 mi ENE 10.4 mph - N/A   Overcast
12:35 PM 77.0 °F 67.8 °F 73% 30.18 in 10.0 mi ENE 9.2 mph - N/A   Overcast
12:55 PM 76.8 °F 68.0 °F 74% 30.17 in 10.0 mi ENE 10.4 mph - N/A   Overcast
1:15 PM 76.8 °F 67.8 °F 74% 30.17 in 10.0 mi NE 11.5 mph - N/A   Overcast
1:35 PM 76.8 °F 67.8 °F 74% 30.16 in 10.0 mi NE 11.5 mph - N/A   Overcast
1:55 PM 76.8 °F 67.8 °F 74% 30.15 in 10.0 mi NE 10.4 mph - N/A   Overcast
2:15 PM 76.1 °F 70.0 °F 81% 30.14 in 10.0 mi NE 9.2 mph - N/A   Overcast
2:35 PM 75.7 °F 70.2 °F 83% 30.14 in 10.0 mi NE 9.2 mph - N/A   Overcast
2:55 PM 76.1 °F 69.3 °F 79% 30.14 in 10.0 mi NE 11.5 mph - N/A   Overcast
3:15 PM 76.8 °F 69.4 °F 78% 30.14 in 10.0 mi NE 11.5 mph 18.4 mph N/A   Overcast
3:35 PM 76.6 °F 71.1 °F 83% 30.14 in 10.0 mi ENE 16.1 mph 19.6 mph N/A   Overcast
3:55 PM 78.3 °F 70.5 °F 77% 30.14 in 10.0 mi NE 16.1 mph - N/A   Overcast
4:15 PM 79.0 °F 71.2 °F 77% 30.13 in 10.0 mi NE 11.5 mph 20.7 mph N/A   Mostly Cloudy
4:35 PM 77.2 °F 70.9 °F 81% 30.13 in 10.0 mi NE 15.0 mph - N/A   Scattered Clouds
4:55 PM 76.8 °F 71.6 °F 84% 30.13 in 10.0 mi NE 11.5 mph - N/A   Scattered Clouds
5:15 PM 77.9 °F 70.9 °F 79% 30.12 in 10.0 mi NNE 15.0 mph - N/A   Clear
5:35 PM 76.8 °F 70.5 °F 81% 30.13 in 10.0 mi NE 10.4 mph - N/A   Clear
5:55 PM 77.5 °F 70.9 °F 80% 30.13 in 10.0 mi NE 8.1 mph - N/A   Scattered Clouds
6:35 PM 76.8 °F 69.6 °F 78% 30.13 in 10.0 mi ENE 8.1 mph - N/A   Overcast
6:55 PM 76.1 °F 69.6 °F 80% 30.14 in 10.0 mi ENE 8.1 mph - N/A   Overcast
7:15 PM 75.2 °F 69.6 °F 83% 30.14 in 10.0 mi ENE 8.1 mph - N/A   Scattered Clouds
7:35 PM 75.0 °F 69.6 °F 83% 30.15 in 10.0 mi East 8.1 mph - N/A   Clear
7:55 PM 76.1 °F 70.5 °F 83% 30.15 in 10.0 mi East 10.4 mph - N/A   Mostly Cloudy
8:15 PM 75.6 °F 69.6 °F 82% 30.15 in 10.0 mi East 10.4 mph - N/A   Scattered Clouds
8:35 PM 75.7 °F 69.4 °F 81% 30.16 in 10.0 mi East 10.4 mph - N/A   Mostly Cloudy
8:55 PM 75.7 °F 70.0 °F 82% 30.16 in 10.0 mi ENE 9.2 mph - N/A   Scattered Clouds
9:15 PM 75.2 °F 69.6 °F 83% 30.16 in 10.0 mi ENE 10.4 mph - N/A   Clear
9:35 PM 75.4 °F 69.6 °F 82% 30.16 in 10.0 mi ENE 10.4 mph - N/A   Clear
9:55 PM 74.8 °F 70.0 °F 85% 30.17 in 10.0 mi ENE 9.2 mph - N/A   Clear
10:15 PM 75.0 °F 69.8 °F 84% 30.17 in 10.0 mi ENE 9.2 mph - N/A   Clear
10:35 PM 74.7 °F 70.7 °F 87% 30.17 in 10.0 mi ENE 6.9 mph - N/A   Scattered Clouds
10:55 PM 74.3 °F 70.9 °F 89% 30.18 in 10.0 mi ENE 5.8 mph - N/A   Mostly Cloudy
11:15 PM 74.3 °F 71.2 °F 90% 30.18 in 10.0 mi ENE 5.8 mph - N/A   Overcast
11:35 PM 74.8 °F 71.4 °F 89% 30.18 in 10.0 mi East 6.9 mph - N/A   Overcast
11:55 PM 75.2 °F 71.6 °F 89% 30.17 in 10.0 mi East 6.9 mph - N/A   Mostly Cloudy